Presure
136 151 136 105 123 96 104 127 124 87 102 97 101 99 96 102 97 97 122 100 115 114 98 117 97 170 143 169 180 149 189 184 189 188 177 163 115 155 152 153 150 138 131
160 140 103 106 104 102 103 112 122 84 100 102 102 97 99 95 104 97 97 97 97 97 100 143 102 112 147 114 150 174 160 151 143 149 91 167 119 171 166 112 164 100 168
148 132 148 160 138 99 104 104 121 106 103 100 101 94 98 101 103 98 108 97 96 98 96 95 95 91 95 154 99 94 109 93 90 112 100 94 101 82 129 164 170 95 95
121 145 122 121 102 98 99 81 113 151 103 97 102 102 102 100 99 99 96 96 95 96 96 106 92 99 101 95 107 92 98 137 90 89 103 90 88 89 94 88 88 89 90
117 144 151 129 137 154 138 103 124 124 173 94 99 99 100 100 98 94 100 94 94 94 102 101 95 96 113 105 93 95 153 89 105 83 87 87 95 94 88 86 89 91 87
126 137 149 141 133 153 158 103 134 134 101 104 95 98 94 95 99 89 98 93 95 95 94 95 95 111 98 92 93 97 106 88 82 83 89 91 89 81 81 97 85 80 89
143 119 117 116 149 110 104 106 100 135 123 94 104 140 100 96 97 98 96 102 100 95 99 107 99 104 95 105 110 118 90 94 157 90 88 88 85 87 86 85 76 89 91
156 145 114 128 140 137 141 139 149 110 124 123 102 118 125 97 101 92 101 95 107 98 102 98 101 106 107 93 91 94 112 152 102 92 92 91 92 93 177 95 91 90 88
146 133 158 162 138 112 102 144 144 114 111 141 147 141 116 103 104 96 97 92 108 99 99 95 99 99 101 94 95 92 93 177 97 100 97 160 175 86 89 165 83 103 81
168 150 164 119 164 113 131 127 143 148 93 132 99 128 96 98 165 100 99 109 89 110 104 102 98 102 105 95 99 135 102 131 90 126 191 76 82 99 101 99 168 90 93
156 157 142 149 148 138 134 135 106 103 95 96 101 101 149 95 103 158 103 129 110 98 102 100 89 104 97 92 87 89 147 88 199 102 93 163 75 154 176 165 85 77 153
146 133 129 149 161 103 116 163 147 160 146 125 105 122 125 98 161 135 99 112 135 109 99 102 95 99 99 88 97 143 200 136 191 145 137 184 102 86 77 92 89 89 126
158 155 153 129 160 157 118 137 161 137 160 108 159 100 121 163 162 99 115 89 103 112 121 95 167 149 137 87 82 193 200 189 86 132 182 118 84 159 83 79 91 98 89
158 157 153 131 135 159 135 145 161 160 167 161 122 105 110 105 161 163 110 109 105 117 144 144 169 90 78 84 82 78 73 85 179 94 88 89 87 94 100 88 95 82 207
195 179 127 171 160 134 135 156 163 176 170 163 162 166 161 156 156 159 125 168 143 124 169 116 104 177 161 188 74 130 143 87 89 95 122 90 104 139 187 169 139 215 233
206 214 221 195 156 131 134 154 190 187 177 171 170 173 166 130 164 143 157 175 171 173 131 89 150 124 138 162 85 81 87 89 101 104 132 147 178 164 193 209 222 225 238
196 201 212 226 204 186 186 182 181 181 162 187 179 176 173 181 188 186 181 189 188 175 84 143 175 183 88 79 84 178 186 128 156 164 176 172 230 186 204 228 186 223 276
188 187 188 212 222 204 192 190 193 187 184 137 156 180 182 186 116 79 107 176 84 85 96 136 88 84 91 107 184 103 109 169 168 155 170 184 186 207 211 215 216 207 291
182 185 185 182 214 215 204 194 191 195 197 197 195 193 75 193 200 139 78 81 138 89 91 85 82 142 188 145 137 173 172 162 167 166 186 182 201 207 217 212 315 179 210
169 172 176 179 181 193 214 204 202 199 199 198 193 192 156 82 200 84 79 160 85 94 98 179 194 187 169 180 174 165 172 167 158 184 192 207 218 205 323 291 207 237 267
170 168 171 113 181 179 190 91 211 91 85 82 197 199 95 200 71 99 95 95 99 103 96 192 181 175 177 174 158 164 151 149 171 171 181 207 217 337 184 265 175 176 229
76 164 181 178 178 84 89 194 207 90 99 71 99 68 103 97 99 121 107 153 99 127 191 173 178 176 172 145 150 170 163 172 180 173 208 204 289 279 321 169 264 257 249
156 88 90 90 158 111 91 88 92 199 93 98 96 100 102 103 191 185 172 127 189 188 171 176 172 154 163 173 163 162 179 177 185 205 205 280 270 174 262 244 161 253 246
99 182 97 99 89 87 158 100 95 101 103 132 122 175 191 187 185 187 182 179 177 176 174 173 170 145 167 182 152 176 173 200 204 200 226 248 250 146 180 267 252 250 245
174 173 188 184 103 96 104 125 180 188 185 195 191 191 191 190 184 176 171 174 173 172 171 168 152 145 164 170 170 131 199 195 199 155 266 242 255 247 240 268 251 245 239
118 192 189 190 174 176 176 127 173 178 171 167 171 173 179 180 178 173 174 173 173 164 146 162 160 163 152 170 176 194 166 200 178 209 244 236 245 238 234 266 249 242 237
Wind_Speed
26 28 26 22 22 16 17 22 20 8 9 8 7 7 7 5 5 4 12 6 9 7 3 6 4 26 22 26 29 27 34 37 41 46 47 46 16 47 48 50 49 38 33
32 27 20 22 21 19 18 22 22 6 11 10 10 10 9 9 4 6 3 4 3 4 1 14 7 7 25 13 26 31 32 31 30 27 6 43 17 51 52 13 55 13 57
30 31 30 32 26 19 20 19 17 18 14 11 12 10 11 8 6 8 3 4 2 1 2 1 2 3 3 29 5 4 13 6 6 13 9 8 13 7 28 46 53 12 14
29 31 31 25 21 21 18 5 22 27 16 13 13 11 10 10 8 7 6 7 6 5 5 6 5 6 7 4 13 5 9 28 7 7 15 8 10 10 12 11 12 12 13
33 33 33 30 30 28 26 20 28 27 30 13 13 12 11 10 9 9 8 11 10 10 8 7 8 9 11 9 8 9 30 8 15 7 11 11 16 16 14 13 15 17 18
39 33 35 34 33 29 30 20 25 29 16 18 14 13 13 13 11 11 11 14 14 14 12 12 13 19 11 11 11 11 15 14 11 12 14 15 16 13 14 21 20 15 24
38 29 33 27 34 26 23 23 18 32 32 15 17 29 17 15 14 13 14 12 15 18 15 15 16 16 14 19 28 23 19 20 38 18 19 19 20 21 21 24 16 30 31
38 40 31 35 35 32 33 35 32 25 35 33 20 29 23 17 18 17 14 17 17 19 15 17 17 15 17 20 19 20 27 42 30 24 24 24 24 28 50 28 30 31 30
41 42 41 41 38 31 23 31 34 26 27 34 36 39 28 19 20 19 19 20 18 21 22 21 21 20 21 24 25 24 25 42 31 27 24 33 40 26 31 44 26 27 28
49 47 44 29 39 33 40 31 37 32 19 40 20 39 18 19 36 19 20 24 22 25 18 21 21 23 25 27 28 44 34 36 24 38 44 18 26 37 36 38 52 40 42
45 42 41 42 41 41 41 38 28 26 22 22 24 24 40 20 22 41 22 32 26 24 24 26 25 27 28 31 27 28 39 29 45 39 34 42 21 49 55 54 35 22 59
47 40 41 43 44 30 35 40 42 40 42 42 28 32 31 20 43 37 20 24 38 28 26 26 28 29 33 23 35 49 46 41 46 41 38 46 38 41 25 41 41 41 56
49 46 44 44 46 44 40 45 44 47 43 32 45 21 30 46 45 20 30 24 25 28 34 28 46 42 43 30 29 47 47 47 33 43 47 43 43 55 45 29 53 60 47
53 51 48 45 48 48 47 47 45 44 44 48 32 24 27 24 47 48 33 33 28 34 40 43 50 36 27 35 31 26 19 38 48 42 40 44 46 52 56 51 63 34 68
56 57 42 55 50 48 48 49 47 50 47 48 50 51 51 51 51 52 35 52 42 38 52 38 37 52 49 52 22 45 47 42 46 51 52 50 57 62 68 67 50 75 78
51 48 47 53 48 46 49 52 53 53 50 49 51 54 50 38 53 55 46 54 53 53 44 35 49 39 41 44 43 38 47 50 57 59 60 59 65 66 71 73 76 77 80
50 48 46 46 52 53 54 54 52 52 47 53 54 55 54 56 55 55 55 54 53 51 35 50 53 53 49 36 45 51 52 59 55 58 63 64 72 70 75 76 66 77 58
50 49 47 46 48 50 53 54 55 54 53 38 45 54 56 56 35 28 34 51 36 40 35 51 50 46 55 53 52 63 64 56 59 60 64 69 72 75 75 75 73 58 54
49 48 46 47 47 49 52 53 54 55 56 56 55 55 24 56 54 40 28 38 45 45 48 50 47 51 51 59 60 55 57 58 62 64 68 69 73 74 75 71 48 60 57
50 48 47 48 47 46 49 51 53 55 57 57 56 54 49 33 53 39 40 51 42 51 55 57 55 52 55 54 56 57 59 61 59 69 70 74 75 68 52 52 57 51 47
52 51 50 30 47 46 48 23 52 24 29 30 54 54 35 52 31 45 48 50 55 58 59 55 53 55 55 57 55 59 54 59 67 65 66 75 75 49 60 53 61 63 49
20 49 52 49 47 26 29 49 49 32 38 24 41 20 44 45 49 51 55 56 58 59 54 54 56 57 58 53 54 64 64 68 71 65 76 73 65 58 40 60 38 37 38
49 35 36 37 45 39 34 34 40 48 41 45 46 50 51 53 52 53 55 60 55 54 57 57 59 53 59 64 63 65 70 71 71 75 76 63 59 57 43 42 60 35 35
43 54 48 48 33 36 44 48 44 51 52 52 53 51 51 52 54 54 53 53 54 56 58 60 62 53 64 69 56 70 71 75 75 75 61 54 50 62 60 33 34 33 32
56 55 56 52 55 45 50 52 47 49 49 51 51 52 53 54 52 52 55 57 59 60 62 63 59 54 66 65 69 65 75 75 76 64 48 50 46 40 40 30 31 31 31
44 59 54 54 50 51 49 49 47 48 48 51 52 53 53 53 54 56 59 61 62 60 56 63 66 68 56 71 72 76 69 76 70 58 47 46 43 41 36 27 31 30 31
Wind_Direction
232 245 233 208 224 203 214 232 223 186 200 192 187 182 213 147 199 190 336 91 6 1 78 303 8 277 289 276 271 274 262 259 258 257 258 262 281 267 270 271 273 277 279
245 238 213 212 213 212 215 216 228 208 204 199 195 188 201 216 134 205 188 149 134 134 112 312 27 358 281 323 280 271 267 272 284 266 2 262 305 261 262 298 264 327 265
239 229 248 250 240 212 219 220 255 218 214 207 207 215 209 211 194 196 21 181 221 233 255 275 6 296 356 284 330 351 310 340 335 289 306 324 326 308 294 267 266 348 342
220 240 224 230 220 221 215 223 224 262 217 214 215 215 217 217 220 212 212 202 223 225 248 336 281 273 344 300 331 286 311 293 296 301 293 292 307 315 317 317 322 321 319
222 238 245 232 240 252 243 226 238 237 279 227 221 219 223 229 236 238 238 263 261 253 285 295 278 263 284 317 272 282 269 282 304 298 293 301 290 297 307 318 316 313 318
225 234 242 238 236 251 255 232 249 250 229 232 234 235 242 238 239 261 242 256 259 264 261 260 264 322 268 275 271 274 293 277 301 302 294 289 292 314 314 286 318 306 314
232 228 226 231 245 233 234 237 233 250 244 233 242 267 241 243 244 245 253 269 260 266 276 298 283 295 268 304 313 278 276 273 277 277 289 296 311 306 306 310 300 310 307
241 234 227 234 235 239 243 246 257 242 249 248 241 255 264 243 250 255 255 258 277 265 272 272 279 291 294 280 281 274 276 285 291 280 282 279 292 286 278 302 298 299 306
231 229 247 251 241 237 238 254 253 247 246 261 267 269 256 251 254 251 254 270 273 265 269 273 274 272 275 278 279 282 280 289 269 302 303 286 278 301 298 280 309 289 304
245 237 250 243 257 239 241 250 252 263 248 256 245 259 253 251 283 255 253 275 276 281 269 270 274 285 289 275 284 299 285 286 300 278 286 306 317 285 299 285 281 297 287
242 242 239 243 244 237 240 246 248 247 247 250 251 252 272 260 265 279 266 277 277 258 271 279 285 277 274 277 287 288 290 292 290 282 286 283 298 281 280 282 297 300 281
237 238 236 241 254 246 245 260 253 263 260 256 254 263 265 258 277 275 265 268 280 279 267 277 272 276 278 302 280 295 296 288 292 297 297 287 285 290 300 294 292 290 287
247 246 243 240 251 248 246 248 258 255 263 255 266 256 268 276 277 269 278 263 278 277 284 271 291 291 288 295 305 298 299 293 299 293 288 287 293 287 292 294 284 284 287
247 248 245 246 246 252 248 253 256 257 265 265 264 268 268 268 278 279 280 283 285 287 288 286 290 278 305 294 303 317 319 301 296 293 293 291 290 289 292 286 281 301 297
247 249 243 255 254 250 252 256 258 266 266 265 267 271 271 271 274 277 273 283 283 277 287 289 281 294 293 300 325 296 296 298 296 293 293 290 293 293 297 293 301 301 299
245 247 245 250 251 251 254 258 263 266 268 269 271 274 275 279 278 276 282 285 286 287 289 283 289 301 295 302 295 307 299 296 292 293 294 296 297 297 301 304 303 302 302
245 249 249 249 251 256 261 263 265 267 259 269 272 277 278 280 281 282 284 285 288 287 291 287 294 297 287 310 304 299 298 295 298 299 298 300 309 303 306 306 301 303 305
245 247 250 253 252 252 257 261 263 268 270 265 271 275 278 279 274 287 276 285 277 277 295 287 284 292 287 293 300 291 295 296 297 298 302 303 305 308 307 306 306 304 308
247 249 250 254 254 252 254 261 265 268 269 271 273 275 278 279 281 289 292 278 289 280 280 284 295 298 299 294 294 295 296 300 300 303 305 305 308 307 307 306 312 306 308
242 245 249 253 257 260 257 260 263 265 267 270 273 275 276 274 281 275 279 282 287 283 285 293 298 298 295 297 295 297 299 302 301 304 308 309 309 308 313 314 307 309 314
243 245 247 253 255 258 263 266 260 268 258 262 271 274 283 278 301 284 281 282 285 285 283 296 295 294 296 296 301 302 297 296 304 304 306 310 313 318 301 315 306 308 314
256 248 249 250 252 260 266 264 263 271 266 285 283 309 286 284 284 283 284 284 283 286 294 290 294 293 294 288 298 299 301 304 308 306 311 312 317 319 316 306 308 313 319
245 259 263 262 253 262 269 269 274 268 279 285 285 286 284 283 279 280 282 284 290 292 289 292 292 286 298 297 302 303 305 306 307 311 312 318 319 306 320 313 308 316 322
250 245 257 258 263 264 259 272 278 281 280 279 281 276 276 277 278 282 284 287 288 289 289 290 292 287 299 303 298 303 306 309 309 310 309 313 319 304 308 310 313 318 323
241 244 247 249 264 273 277 269 265 268 272 271 274 274 275 277 281 282 282 284 284 287 287 291 296 286 300 298 302 294 308 308 311 296 316 317 319 320 319 305 314 316 319
248 243 246 248 250 252 255 272 263 267 267 267 270 272 277 280 281 280 281 282 285 288 279 293 296 298 290 299 303 306 304 310 303 307 315 315 317 317 320 306 313 313 314